[Date Prev][Date Next][Thread Prev][Thread Next] - [Date Index][Thread Index][Author Index]

2 Line ISS Keps 6-30



ISS
1 25544U 98067A   03181.48860586  .00019276  00000-0  23905-3 0  1751
2 25544  51.6329 313.3451 0007644 317.2391  86.9548 15.60028488263086


----
Via the sarex mailing list at AMSAT.ORG courtesy of AMSAT-NA.
To unsubscribe, send "unsubscribe sarex" to Majordomo@amsat.org



AMSAT Top AMSAT Home